Location: *
(49.3500°N, 12.6000°E)
Time: 16:13:14
(UTC+00:00)

CZ-4 R/B - Pass Details

Date: 18 October 2019
Orbit: 530 x 601 km, 97.8° (Epoch: 14 November)

Event Time Altitude Azimuth Distance (km) Brightness Sun altitude
Rises 16:43:05 0° 146° (SE) 2,808 4.7 -5.4°
Reaches altitude 10° 16:45:18 10° 139° (SE) 1,921 3.8 -5.8°
Maximum altitude 16:49:13 42° 69° (ENE) 867 1.9 -6.4°
Drops below altitude 10° 16:53:14 10° 359° (N) 1,954 4.1 -7.1°
Sets 16:55:30 0° 353° (N) 2,864 5.0 -7.5°
